Content
SEND FEEDBACK

Daily
Averages
Monthly
Summary
United States of America

PALM SPRINGS, CALIFORNIA


Home > North America > United States > California
Elevation: 448 feet     Latitude: 33 49N     Longitude: 116 30W

WEATHER
 
SELECT A DAY
Number of Records: 164,720;   Date Range: 1/1/95 - 12/25/14
 
SHARE

PRINT THIS DATA

[ ← Previous Day ]
WEATHER ALMANAC - JANUARY 31, 2013
[ Next Day → ]
[ °C ]   °F
Weather ElementAverageHighLow
Temperature59.3 °F75 °F (2:53 pm)46 °F (5:53 am)
Dewpoint38.3 °F43 °F (9:53 pm)35.1 °F (10:53 am)
Humidity49.1 %74 % (1:53 am)24 % (2:53 pm)
Barometer30.19 in30.25 in (1:53 am)30.11 in (2:53 pm)
Wind Speed3.3 mph6.9 mph (2:53 am)
Weather ElementAverage
Visibility10 mi
Wind DirectionSSE (148.6 °)

Weather ElementTotal
Precipitation---
Heating Degree Days4.5 (Base 65)
Growing Degree Days10.5 (Base 50)
Averaged from 21 records on January 31, 2013
WEATHER CONDITIONS BREAKOUT
WIND DIRECTION BREAKOUT
WEATHER BY HOUR - JANUARY 31, 2013
[ °C ]   °F
Local TimeTemperatureDewpointHumidityBarometerVisibilityWind DirectionWind SpeedGust SpeedPrecipitationEventsConditions
1:53 AM46.9 °F39.0 °F74 %30.25 in10.0 miCalmClear
2:53 AM48.0 °F39.0 °F71 %30.24 in10.0 miNNW (330°)6.9 mphClear
3:53 AM48.9 °F37.9 °F66 %30.22 in10.0 miNNW (330°)4.6 mphClear
4:53 AM48.0 °F37.9 °F68 %30.21 in10.0 miNNW (330°)5.8 mphClear
5:53 AM46.0 °F37.9 °F73 %30.22 in10.0 miCalmClear
6:53 AM48.9 °F37.0 °F64 %30.22 in10.0 miWNW (300°)4.6 mphClear
7:53 AM52.0 °F37.0 °F57 %30.23 in10.0 miWNW (300°)3.5 mphClear
8:53 AM57.9 °F36.0 °F44 %30.23 in10.0 miCalmClear
9:53 AM62.1 °F36.0 °F38 %30.25 in10.0 miCalmScattered Clouds
10:53 AM66.9 °F35.1 °F31 %30.24 in10.0 miVariable4.6 mphScattered Clouds
11:53 AM69.1 °F36.0 °F30 %30.21 in10.0 miEast (90°)4.6 mphClear
12:53 PM71.1 °F37.0 °F29 %30.16 in10.0 miCalmScattered Clouds
1:53 PM73.0 °F37.0 °F27 %30.14 in10.0 miCalmClear
2:53 PM75.0 °F36.0 °F24 %30.11 in10.0 miSSE (160°)4.6 mphClear
4:53 PM71.1 °F39.9 °F32 %30.12 in10.0 miEast (90°)5.8 mphClear
5:53 PM66.9 °F41.0 °F39 %30.13 in10.0 miSE (130°)3.5 mphClear
6:53 PM63.0 °F41.0 °F45 %30.14 in10.0 miENE (70°)4.6 mphClear
7:53 PM62.1 °F39.0 °F43 %30.16 in10.0 miCalmClear
8:53 PM57.9 °F42.1 °F56 %30.16 in10.0 miNNW (340°)5.8 mphClear
9:53 PM55.0 °F43.0 °F64 %30.16 in10.0 miNNW (330°)4.6 mphClear
10:53 PM55.0 °F39.9 °F57 %30.16 in10.0 miNW (320°)5.8 mphClear
Hourly data recorded from KPSP, located miles away from Palm Springs, California







STORIES FROM OUR PARTNERS